www.pogodaiklimat.ru

Погода и климат >> Архив погоды >> Монголия >> Баяндэлгэр


ПОГОДА в Баяндэлгэре

  • Прогноз погоды в Баяндэлгэре
  • Монитор погоды в Баяндэлгэре

АРХИВ ПОГОДЫ в Баяндэлгэре

Время (UTC), дата Ветер
(напр.,м/с)
 
Видим.   Явления Облачность Т
(С)
Тd
(С)
f
(%)
Тe
(С)
Тes
(С)
Комфортность P
(гПа)
Po
(гПа)
Тmin
(С)
Tmax
(С)
R
(мм)
R24
(мм)
S
(см)
00 14.06 ЮВ 2 50 км ясно +18.2 +3.2 37 +19 +25 1009.6 889.1 +12.3
03 14.06 В 3 50 км ясно +21.4 +5.6 36 +22 +36 комфорт 1008.3 888.7
06 14.06 ЮВ 2 50 км ясно +24.6 +7.3 33 +25 +42 комфорт 1005.4 887.6
09 14.06 В 3 50 км 3/0
[Ci fib]
+26.0 +8.0 32 +26 +31 жарко 1002.7 886.1
12 14.06 В 5 50 км 4/0
[Ci]
+23.7 +5.6 31 +24 +24 комфорт 1004.7 886.7 +26.9
15 14.06 В 2 50 км 3/0
[Ci]
+18.3 +1.1 31 +19 +19 1007.3 887.1
18 14.06 штиль 0 50 км 3/0
[Ci]
+14.9 +1.7 41 +15 +15 1007.4 886.2
21 14.06 штиль 0 50 км 8/0
[Cs]
+13.9 +1.1 42 +14 +14 1007.8 886.1
00 15.06 ЮВ 3 50 км 9/0
[Ac As]
+17.4 +3.8 40 +17 +19 1007.7 886.6 +13.2
03 15.06 ЮВ 4 50 км 9/0
[Ac As]
+22.8 +8.5 40 +24 +28 комфорт 1004.0 885.7
06 15.06 ЮВ 4 50 км 9/0
[Ac trans]
+25.8 +9.2 35 +26 +32 жарко 1000.5 884.2
09 15.06 В 4 50 км 9/0
[Ac As]
+24.9 +7.0 32 +25 +27 комфорт 999.8 882.8
12 15.06 штиль 0 50 км 9/9 600 м
[Sc]
+24.0 +4.6 28 +24 +24 комфорт 999.1 882.4 +26.2
15 15.06 З 5 50 км 9/9 600 м
[Sc]
+19.6 +6.4 42 +20 +20 1001.8 883.0
18 15.06 З 3 н/о 10/10 600 м
[Sc]
+18.2 +10.2 60 +19 +19 1003.9 883.8
21 15.06 С 3 4000 м слаб. дождь 10/0 600 м
[As op]
+13.9 +10.5 80 +13 +13 1004.4 883.4
00 16.06 С 3 2000 м дождь 10/0 600 м
[As op]
+13.0 +11.1 88 +12 +13 1004.9 882.9 +12.6 5
03 16.06 С 5 2000 м дождь 10/0 600 м
[As op]
+12.0 +9.8 86 +10 +11 1005.3 883.0
06 16.06 С 6 4000 м слаб. дождь 10/10 600 м
[Sc]
+12.8 +11.1 89 +10 +10 1004.9 883.0
09 16.06 СВ 6 50 км в посл. час дождь 9/9 600 м
[Sc]
+13.8 +12.3 91 +12 +12 1003.3 882.3
12 16.06 штиль 0 50 км {дождь} 8/0
[Ac trans]
+14.5 +10.9 79 +14 +14 1003.3 882.4 +15.5 11
15 16.06 штиль 0 50 км 8/0
[Ac trans]
+13.3 +11.0 86 +13 +13 1004.9 883.2
18 16.06 С 3 50 км 5/0
[Ac lent]
+12.8 +11.1 89 +11 +11 1004.9 882.8
21 16.06 штиль 0 50 км 9/9 600 м
[Sc]
+12.3 +10.5 89 +12 +12 1005.3 883.0
00 17.06 штиль 0 50 км 3/0
[Ac lent Ci fib]
+14.8 +10.6 76 +15 +21 1004.0 883.4 +10.3
03 17.06 СВ 3 50 км 1/0
[Ac lent]
+18.0 +8.5 54 +18 +31 опасность
простуды
1003.9 883.9
06 17.06 штиль 0 50 км 3/0
[Ac lent Ci]
+20.4 +8.9 48 +21 +42 комфорт 1003.0 883.8
09 17.06 С 3 50 км 3/1 600 м
[Cu hum Ci]
+21.3 +7.6 41 +22 +27 комфорт 1002.6 883.5
12 17.06 штиль 0 50 км 1/0
[Ci]
+20.7 +8.2 45 +22 +22 комфорт 1002.6 883.8 +22.1
15 17.06 штиль 0 50 км ясно +15.9 +11.1 73 +16 +16 1005.9 884.6
18 17.06 штиль 0 50 км ясно +14.6 +9.8 73 +14 +14 1006.3 884.7
21 17.06 С 3 50 км ясно +13.5 +7.8 68 +12 +12 1006.7 884.9
00 18.06 С 3 50 км ясно +18.0 +10.2 60 +18 +23 1006.1 886.2 +13.0
03 18.06 СВ 3 50 км 5/3 1000 м
[Cu hum Ac lent Ci]
+21.4 +10.2 49 +23 +32 комфорт 1004.8 886.5
06 18.06 штиль 0 4000 м гроза, ливневой дождь 9/9 600 м
[Cb cap]
+22.6 +9.9 44 +24 +27 комфорт 1004.0 886.0
09 18.06 С 3 50 км {гроза} 6/6 600 м
[Cu med, cong]
+24.2 +9.8 40 +25 +27 комфорт 1003.6 885.7
12 18.06 С 3 50 км {гроза} ясно +24.3 +10.6 42 +25 +25 комфорт 1003.6 885.7 +25.7 0.0
15 18.06 СЗ 2 50 км ясно +20.0 +8.5 47 +22 +22 комфорт 1006.4 887.0
18 18.06 СЗ 3 50 км ясно +18.8 +8.4 51 +20 +20 1006.8 887.0
21 18.06 СЗ 4 50 км 1/0
[Ac lent]
+17.2 +6.2 48 +17 +17 1006.5 886.5
00 19.06 СЗ 5 50 км 3/0
[Ci fib]
+23.3 +8.5 39 +25 +28 комфорт 1005.1 887.2 +16.2
03 19.06 С 2 50 км 3/3 1000 м
[Cu hum Ci fib]
+27.3 +9.2 32 +27 +39 жарко 1003.5 887.3
06 19.06 штиль 0 50 км 4/3 1000 м
[Cu hum Ci fib]
+28.8 +9.3 30 +29 +44 жарко 1001.5 886.0
09 19.06 штиль 0 50 км 9/3 1000 м
[Cu hum Cs]
+29.5 +9.8 29 +29 +34 жарко 1000.0 884.9
12 19.06 штиль 0 50 км 9/0
[Ac As]
+27.1 +9.2 32 +27 +27 жарко 1001.2 884.6 +30.6
15 19.06 штиль 0 50 км 3/0
[Ac lent]
+22.7 +7.1 37 +24 +24 комфорт 1002.9 885.4
18 19.06 штиль 0 50 км ясно +20.3 +8.9 48 +21 +21 комфорт 1004.1 885.0
21 19.06 СЗ 3 50 км 3/3 1000 м
[Cu hum Ac lent]
+18.8 +5.8 43 +19 +19 1004.5 884.7
00 20.06 С 7 50 км 8/5 600 м
[Cu med, cong Ac lent]
+22.3 +9.0 43 +24 +24 комфорт 1004.4 886.0 +17.9
03 20.06 СВ 5 50 км 1/0
[Ci fib]
+28.2 +12.1 37 +29 +38 жарко 1003.0 886.6
06 20.06 С 4 50 км 1/1 600 м
[Cu hum]
+29.6 +8.4 27 +29 +39 жарко 1001.1 886.2
09 20.06 СВ 4 50 км ясно +29.8 +9.0 27 +29 +33 жарко 1001.1 886.0
12 20.06 С 1 50 км ясно +27.3 +8.6 31 +27 +27 жарко 1003.5 886.7 +30.9
15 20.06 штиль 0 50 км ясно +22.1 +5.3 33 +22 +22 комфорт 1006.7 888.1
18 20.06 штиль 0 50 км ясно +18.3 +4.3 40 +18 +18 1008.4 888.1
21 20.06 штиль 0 50 км ясно +17.3 +3.6 40 +17 +17 1010.0 889.2

 

Местоположение метеостанции Баяндэлгэр (Монголия): широта 45.73 долгота 112.36 высота над уровнем моря 1101 м.

В архиве по умолчанию представлена погода в Баяндэлгэре за последнюю неделю. Архивные данные за месяц целиком и за предыдущие месяцы, начиная с января 2011 года, Вы можете получить, выбрав интересующий диапазон дат из раскрывающегося списка и нажав кнопку "Ввод!".


*Определитесь, кто Вы:
робот инопланетянин человек

Внимание! Время в таблицах - всемирное. Для получения местного времени необходимо прибавить поправку, которая равна 8 ч.

Смотрите также архив погоды в соседних городах и на ближайших метеорологических станциях:

Погода в Баруун-Урте (Монголия) (127 км)
Погода в Нарэнбаулаге (Внутренняя Монголия, Китай) (187 км)
Погода в Сайншанде (Монголия) (199 км)
Погода в Ундерхаане (Монголия) (221 км)
Погода в Замун-Ууде (Монголия) (225 км)
Погода в Баян-Ову (Монголия) (229 км)
Погода в Эрэн-Хото (Внутренняя Монголия, Китай) (233 км)
Погода в Эрдэнэцагаане (Монголия) (233 км)
Погода в Баянчагане (Внутренняя Монголия, Китай) (279 км)
Погода в Матаде (Монголия) (297 км)

Пояснения к столбцам:

Ветер - указаны скорость ветра в м/с - средняя за 10 мин, порывы в срок и между сроками (в фигурных скобках) и направление, откуда дует ветер: С - северный, СВ - северо-восточный, В - восточный, ЮВ - юго-восточный, Ю - южный, ЮЗ - юго-западный, З - западный, СЗ - северо-западный.
Видимость - горизонтальная дальность видимости в метрах или километрах. При видимости от 1 до 10 км при отсутствии осадков обычно наблюдается дымка, при ухудшении видимости до 1 км и менее - туман. В сухую погоду видимость может ухудшаться дымом, пылью или мглою.
Явления - указаны атмосферные явления, наблюдавшиеся в срок или в последний час перед сроком; фигурными скобками обозначены явления, наблюдавшиеся между сроками (за 1-3 часа до срока); квадратными скобками обозначены град или гололедные отложения с указанием их диаметра в мм.
Облачность - указаны через наклонную черту общая и нижняя облачность в баллах и высота нижней границы облаков в метрах; квадратными скобками обозначены формы облаков: Ci - перистые, Cs - перисто-слоистые, Cc - перисто-кучевые, Ac - высококучевые, As - высокослоистые, Sc - слоисто-кучевые, Ns - слоисто-дождевые, Cu - кучевые, Cb - кучево-дождевые. Подробнее классификацию облаков см. в Атласе облаков (PDF).
T - Температура воздуха - температура, измеренная на высоте 2 м над землей.
Td - Температура точки росы - температура, при понижении до которой содержащийся в воздухе водяной пар достигнет насыщения.
f - Относительная влажность воздуха - влажноcть воздуха, измеренная на высоте 2 м над землей.
Te - Эффективная температура - температура, которую ощущает одетый по сезону человек в тени. Характеристика душности погоды. При расчете учитывается влияние влажности воздуха и скорости ветра на теплоощущения человека.
Tes - Эффективная температура на солнце - температура, которую ощущает человек, с поправкой на солнечный нагрев. Характеристика знойности погоды. Зависит от высоты солнца над горизонтом, облачности и скорости ветра. Ночью, в пасмурную погоду, а также при ветре 12 м/с и более поправка равна нулю.
P - Атмосферное давление - приведенное к уровню моря атмосферное давление.
Po - Атмосферное давление - измеренное на уровне метеостанции атмосферное давление.
Tmin - Минимальная температура - минимум температуры воздуха на высоте 2 м над землей.
Tmax - Максимальная температура - максимум температуры воздуха на высоте 2 м над землей.
R - Количество осадков - Количество выпавших осадков за период времени, мм. При наведении курсора мыши на число - период времени, за который выпало указанное количество осадков.
R24 - Количество осадков - Количество выпавших осадков за 24 часа, мм.
S - Снежный покров - Высота снежного покрова, см. При наведении курсора мыши на число - состояние снежного покрова и степень покрытия местности в баллах.